Weather History for Port Angeles, WA

Change the Weather History Date:

Friday, December 27, 2013

  Actual Average Record
Temperature  
Mean Temperature 40 °F -  
Max Temperature 50 °F 44 °F 59 °F (1980)
Min Temperature 30 °F 33 °F 19 °F (1971)
Degree Days  
Heating Degree Days 25    
Moisture  
Dew Point 37 °F    
Average Humidity 92    
Maximum Humidity 100    
Minimum Humidity 77    
Precipitation  
Precipitation 0.15 in - - ()
Sea Level Pressure  
Sea Level Pressure 30.17 in    
Wind  
Wind Speed 3 mph (WSW)    
Max Wind Speed 17 mph    
Max Gust Speed -    
Visibility 7 miles    
Events Fog , Rain    
Averages and records for this station are not official NWS values.
T = Trace of Precipitation, MM = Missing Value Source: NWS Daily Summary

Daily Weather History Graph

Daily Weather History Graph

Search for Another Location

Airport:

Trip Planner

Search our weather history database for the weather conditions in past years. The results will help you decide how hot, cold, wet, or windy it might be!

Date:

Astronomy

Dec. 27, 2013 Rise Set
Actual Time 8:03 AM PST 4:26 PM PST
Civil Twilight 7:27 AM PST 5:03 PM PST
Nautical Twilight 6:47 AM PST 5:43 PM PST
Astronomical Twilight 6:09 AM PST 6:20 PM PST
Moon 2:26 AM PST (12/27) 12:54 PM PST (12/27)
Length of Visible Light 9h 35m
Length of Day
8h 22m
Waning Crescent, 27% of the Moon is Illuminated
Dec 27
Waning Crescent
Jan 1
New
Jan 7
First Quarter
Jan 15
Full
Jan 23
Last Quarter

Hourly Weather History & Observations

Time (PST) Temp. Windchill Dew Point Humidity Pressure Visibility Wind Dir Wind Speed Gust Speed Precip Events Conditions
12:35 AM 30.9 °F - 30.0 °F 96% 30.19 in 9.0 mi Calm Calm - N/A   Mostly Cloudy
12:53 AM 33.1 °F - 30.9 °F 92% 30.20 in 9.0 mi Calm Calm - N/A   Overcast
1:40 AM 36.0 °F 32.1 °F 34.0 °F 93% 30.17 in 1.5 mi South 4.6 mph - N/A   Overcast
1:50 AM 33.8 °F - 33.8 °F 100% 30.18 in 0.8 mi Calm Calm - N/A   Overcast
1:53 AM 35.1 °F - 33.1 °F 92% 30.19 in 0.5 mi Calm Calm - N/A Fog Fog
2:02 AM 36.0 °F 33.3 °F 35.1 °F 97% 30.18 in 0.2 mi WSW 3.5 mph - N/A Fog Fog
2:15 AM 35.1 °F 30.1 °F 34.0 °F 96% 30.19 in 0.2 mi WSW 5.8 mph - N/A Fog Fog
2:26 AM 37.0 °F 32.4 °F 35.1 °F 93% 30.19 in 1.0 mi SSW 5.8 mph - N/A   Overcast
2:30 AM 36.0 °F 32.1 °F 35.1 °F 97% 30.19 in 3.0 mi SW 4.6 mph - N/A   Overcast
2:53 AM 37.0 °F 33.3 °F 36.0 °F 96% 30.18 in 6.0 mi SSE 4.6 mph - N/A   Mostly Cloudy
3:01 AM 35.1 °F 31.0 °F 34.0 °F 96% 30.17 in 1.8 mi ESE 4.6 mph - N/A   Mostly Cloudy
3:08 AM 36.0 °F - 35.1 °F 97% 30.16 in 1.5 mi Calm Calm - N/A   Mostly Cloudy
3:18 AM 37.0 °F - 36.0 °F 96% 30.16 in 2.0 mi Calm Calm - N/A   Mostly Cloudy
3:39 AM 36.0 °F 33.3 °F 35.1 °F 97% 30.16 in 1.5 mi SW 3.5 mph - N/A   Mostly Cloudy
3:46 AM 36.0 °F - 35.1 °F 97% 30.15 in 3.0 mi Calm Calm - N/A   Mostly Cloudy
3:53 AM 35.1 °F 32.2 °F 35.1 °F 100% 30.16 in 4.0 mi SSW 3.5 mph - N/A   Mostly Cloudy
4:13 AM 35.1 °F 32.2 °F 34.0 °F 96% 30.14 in 4.0 mi SE 3.5 mph - N/A   Overcast
4:23 AM 36.0 °F 33.3 °F 34.0 °F 93% 30.14 in 4.0 mi Variable 3.5 mph - N/A   Mostly Cloudy
4:37 AM 36.0 °F - 35.1 °F 97% 30.14 in 4.0 mi Calm Calm - N/A   Overcast
4:53 AM 36.0 °F 33.3 °F 35.1 °F 97% 30.15 in 10.0 mi WSW 3.5 mph - N/A   Overcast
5:10 AM 37.0 °F 34.5 °F 36.0 °F 96% 30.13 in 10.0 mi West 3.5 mph - N/A   Overcast
5:21 AM 37.0 °F 33.3 °F 36.0 °F 96% 30.13 in 10.0 mi SW 4.6 mph - N/A   Overcast
5:53 AM 36.0 °F - 35.1 °F 97% 30.12 in 5.0 mi Calm Calm - N/A   Overcast
6:48 AM 37.4 °F - 35.6 °F 93% 30.10 in 10.0 mi Calm Calm - N/A   Overcast
6:53 AM 37.9 °F 33.5 °F 36.0 °F 93% 30.11 in 10.0 mi West 5.8 mph - N/A   Mostly Cloudy
7:53 AM 37.9 °F 34.4 °F 36.0 °F 93% 30.10 in 10.0 mi WSW 4.6 mph - N/A   Overcast
8:53 AM 39.9 °F - 39.0 °F 97% 30.09 in 10.0 mi Calm Calm - 0.00 in Rain Light Rain
9:02 AM 39.9 °F - 39.0 °F 97% 30.09 in 10.0 mi Calm Calm - 0.00 in Rain Light Rain
9:11 AM 39.9 °F 36.7 °F 37.9 °F 93% 30.09 in 10.0 mi West 4.6 mph - 0.00 in Rain Light Rain
9:20 AM 41.0 °F 38.0 °F 39.0 °F 93% 30.09 in 10.0 mi SW 4.6 mph - 0.00 in   Overcast
9:46 AM 42.1 °F - 39.9 °F 92% 30.08 in 10.0 mi Calm Calm - 0.00 in Rain Light Rain
9:53 AM 42.1 °F - 39.9 °F 92% 30.10 in 10.0 mi Calm Calm - 0.00 in Rain Light Rain
10:53 AM 43.0 °F - 41.0 °F 93% 30.13 in 3.0 mi Calm Calm - 0.12 in Rain Light Rain
11:53 AM 45.0 °F 41.2 °F 43.0 °F 93% 30.15 in 10.0 mi WNW 6.9 mph - 0.03 in   Overcast
12:53 PM 48.0 °F - 44.1 °F 86% 30.15 in 10.0 mi WNW 10.4 mph - N/A   Clear
1:53 PM 50.0 °F - 43.0 °F 77% 30.16 in 10.0 mi NW 13.8 mph - N/A   Clear
2:53 PM 48.9 °F - 42.1 °F 77% 30.20 in 10.0 mi NW 10.4 mph - N/A   Clear
3:53 PM 46.0 °F 42.5 °F 39.9 °F 79% 30.21 in 10.0 mi WSW 6.9 mph - N/A   Clear
4:53 PM 46.0 °F 41.0 °F 39.9 °F 79% 30.24 in 10.0 mi West 10.4 mph - N/A   Clear
5:53 PM 44.1 °F 40.8 °F 39.9 °F 85% 30.25 in 10.0 mi NW 5.8 mph - N/A   Clear
6:53 PM 45.0 °F 37.6 °F 39.9 °F 82% 30.28 in 10.0 mi West 17.3 mph - N/A   Clear
7:53 PM 43.0 °F 37.2 °F 39.0 °F 86% 30.30 in 10.0 mi West 10.4 mph - N/A   Clear
8:53 PM 42.1 °F 35.7 °F 37.9 °F 85% 30.30 in 10.0 mi West 11.5 mph - N/A   Clear
9:53 PM 42.1 °F 35.7 °F 37.0 °F 82% 30.32 in 10.0 mi West 11.5 mph - N/A   Clear
10:53 PM 41.0 °F 35.8 °F 36.0 °F 82% 30.34 in 10.0 mi WNW 8.1 mph - N/A   Clear
11:53 PM 37.9 °F 34.4 °F 35.1 °F 89% 30.37 in 10.0 mi SW 4.6 mph - N/A   Partly Cloudy